Home > Weather > Burlington > Past weeks

Flag for Canada Weather for the Past 2 Weeks in Burlington, Ontario, Canada

Now
45 °F

Cool.


Feels Like: 40 °F
Forecast: 43 / 54 °F
Wind: 10 mph from Northeast

Location: Burlington Piers

Current Time: May 4, 2016 at 3:28:25 PM

Latest Report: May 4, 2016 at 2:00 PM


Visibility: N/A

Pressure: 29.71 "Hg

Humidity: 90%

Dew Point: 42 °F

Location of BurlingtonLocation

Historic Weather in Burlington — Graph

°F

Burlington Temperature Yesterday

Maximum temperature yesterday: 47 °F (at 12:00 AM)
Minimum temperature yesterday: 42 °F (at 11:00 AM)
Average temperature yesterday: 45 °F

High & Low Weather Summary for the Past Weeks

 TemperatureHumidityPressure
High67 °F (Apr 22, 2:00 PM)100% (May 1, 12:00 PM)30.36 "Hg (May 1, 12:00 PM)
Low36 °F (Apr 25, 4:00 PM)29% (Apr 19, 8:00 PM)29.71 "Hg (May 4, 2:00 PM)
Average44 °F70%30.04 "Hg
* Reported Apr 19 2:00 PM — May 4 2:00 PM, Burlington, Weather by CustomWeather, © 2016

Note: Actual official high and low records may vary slightly from our data, if they occured in-between our weather recording intervals... More about our weather records

Advertising

Burlington Weather History for the Previous 24 Hours

Scroll right to see more
 ConditionsComfort  
Time TempWeatherWind HumidityBarometerVisibility
2:00 PM
Wed, May 4
45 °FCool.10 mph90%29.71 "HgN/A
1:00 PM45 °FQuite cool.10 mph91%29.72 "HgN/A
12:00 PM45 °FQuite cool.12 mph91%29.72 "HgN/A
11:00 AM44 °FQuite cool.12 mph93%29.72 "HgN/A
10:00 AM45 °FQuite cool.8 mph90%29.72 "HgN/A
9:00 AM44 °FQuite cool.6 mph95%29.73 "HgN/A
8:00 AM44 °FQuite cool.5 mph88%29.74 "HgN/A
7:00 AM44 °FQuite cool.5 mph87%29.72 "HgN/A
6:00 AM43 °FQuite cool.5 mph84%29.72 "HgN/A
5:00 AM44 °FQuite cool.5 mph92%29.72 "HgN/A
4:00 AM44 °FQuite cool.3 mph92%29.73 "HgN/A
3:00 AM45 °FQuite cool.3 mph91%29.74 "HgN/A
2:00 AM45 °FCool.2 mph91%29.75 "HgN/A
1:00 AM45 °FCool.1 mph91%29.77 "HgN/A
12:00 AM46 °FCool.2 mph90%29.78 "HgN/A
11:00 PM
Tue, May 3
45 °FCool.5 mph88%29.80 "HgN/A
10:00 PM46 °FCool.1 mph86%29.80 "HgN/A
9:00 PM47 °FCool.3 mph84%29.80 "HgN/A
8:00 PM46 °FCool.2 mph85%29.81 "HgN/A
7:00 PM46 °FCool.7 mph84%29.81 "HgN/A
6:00 PM46 °FCool.7 mph86%29.81 "HgN/A
5:00 PM47 °FCool.7 mph85%29.82 "HgN/A
4:00 PM46 °FCool.3 mph86%29.83 "HgN/A
3:00 PM47 °FCool.7 mph84%29.84 "HgN/A
Weather by CustomWeather, © 2016

See weather overviewHow to use our weather pages